SL-16 DEB

Satellite information

Favourite Embed

Satellite Type and Status

DEBRISIN ORBIT

Key statistics

Satellite SL-16 DEB at a glance.

Uptime

11123

Days in orbit

Revolutions

≈ 14.0

Per day

Orbit

LEO

Low Earth Orbit

Inclination

70.9

Latest

Satellite identification and parameters

Extended collection of information and parameters for SL-16 DEB.

Object identification

Identified? True

Debris? True

Object name: SL-16 DEB

International designator: 1994-077F

Object number (NORAD): 23409

Object ID (CCSDS): 23409

Country: COMMONWEALTH OF INDEPENDENT STATES (CIS)

Current information (Y/N): Y

RCS size: MEDIUM

Orbital parameters

Period: 102.949 minutes

Inclination: 70.8782 deg

SMA: 7276.258 km

Apoapsis: 963.855 km

Periapsis: 832.392 km

RAAN: 129.281 deg

Eccentricy: 0.0090337

Argument of periapsis: 165.0544 deg

Mean anomaly: 195.3272 deg

Mean motion: 13.98751648 rev/day

Mean motion (dot): 0.00000237 rev/day2

B* drag term: 0.00019019 1/REarth

Two-line elements (TLE)

Creation date: May 8, 2025, 3:01 a.m.

Reference frame: TEME

Reference center: EARTH

Epoch: May 7, 2025, 4:46 p.m. UTC

TLE line 0: 0 SL-16 DEB

TLE line 1: 1 23409U 94077F 25127.69900338 .00000237 00000-0 19019-3 0 9995

TLE line 2: 2 23409 70.8782 129.2810 0090337 165.0544 195.3272 13.98751648553433

Live tracking on map

Real-time ground track for satellite SL-16 DEB.

In-orbit conjunctions

A list of the most updated potential collisions computed for object SL-16 DEB.

Target Orbit TCA Probability of collision Miss distance Type
SL-16 DEB LEO 2025-02-28 12:37:03 0.0004289453 78.0 (m) DEBRIS
CZ-6A DEB SSO 2025-02-01 13:31:42 0.0002153642 358.0 (m) DEBRIS

Associated space launch

Second generation ELING satellite

SL-16 DEB was lifted into orbit during the mission ‘Zenit-2 | Tselina-2 16’, on board a Zenit-2 space rocket.

The launch took place on Nov. 24, 1994, 9:15 a.m. from 45/1.

For more information about the launch, click the button.

Launch to space Zenit-2 | Tselina-2 16
Zenit-2 | Tselina-2 16

Agency: N/A

Status: Launch Successful

Launch date: Nov. 24, 1994, 9:15 a.m. UTC

Rocket: Zenit-2

Launch pad: 45/1

Location: Baikonur Cosmodrome, Republic of Kazakhstan

...

Latest news about this satellite

There are no fresh news available about this satellite. Check back as we update our databases every day.


Newsletter sign-up

Weekly statistics, charts and insights to help you stay on top of the space industry.